Погода в Аберистуите

Великобритания     52°24′51″N   4°04′54″W
темп.,
°C
ветер,
м/с
пор.,
м/с
влажн.,
%
обл.,
%
осадки,
мм/ч
давл.,
гПа
погр.,
м
20 мая, пт
пт2001:00+9ююв3388100 0.1 101999
04:00+9ююв3493100 0.0 1018114
07:00+10ююв3887100 0.0 1017517
10:00+12ююз61082100 0.1 1016911
13:00+12юз71185100 0.5 10161024
16:00+12юз8139092 0.3 1014898
19:00+11зюз9139245 1.2 1016743
22:00+10зюз712955 0.5 1018334
21 мая, сб
сб2101:00+10зюз599563 0.9 1019318
04:00+9юз5797100 0.6 1020265
07:00+10ююз469698 1.3 1020463
10:00+12юз6783100 0.3 1020760
13:00+13зюз687498 0.3 10201020
16:00+13зюз6877100 0.1 1020859
19:00+12зюз488244 0.3 1019626
22:00+10ююв339297 0.1 101953
22 мая, вс
вс2201:00+8ююв3391100 0.1 101882
04:00+10ю3787100 0.0 1017251
07:00+10ююв3689100 0.0 1015215
10:00+13ю4885100 0.0 1014547
13:00+14юз5883100 0.1 1013620
16:00+13ююз5885100 0.0 1012602
19:00+13ю4787100 0.1 1010524
22:00+12ююз3692100 0.1 1009340
23 мая, пн
пн2301:00+11юз4892100 0.6 1007523
04:00+10ююз4888100 0.2 1006307
07:00+10ююз3790100 0.3 1004355
10:00+12юз5778100 0.1 1003826
13:00+12юз5677100 0.4 1002774
16:00+12зюз6874100 0.4 1001902
19:00+10зюз7992100 1.4 1001612
22:00+9зюз2492100 1.2 1001123
24 мая, вт
вт2401:00+9зсз228988 1.7 100188
04:00+8сз47896 1.1 1003180
07:00+9сз579143 1.6 1004594
10:00+10з678316 0.7 1006813
13:00+11з77808 0.9 1008848
16:00+12зюз56752 0.1 1008869
19:00+12юз7108499 0.3 1009678
22:00+10юз6118866 0.7 1010413